Weather History for KCNK - August, 2013

Change the Weather History Date:

Thursday, August 8, 2013

  Actual Average Record
Temperature  
Mean Temperature 71 °F 78 °F  
Max Temperature 76 °F 90 °F 109 °F (1934)
Min Temperature 65 °F 67 °F 55 °F (1989)
Degree Days  
Heating Degree Days 0 0  
Month to date heating degree days 0 0  
Since 1 June heating degree days 22 13  
Since 1 July heating degree days 7 0  
Cooling Degree Days 6 13  
Month to date cooling degree days 78 109  
Year to date cooling degree days 830 899  
Since 1 June cooling degree days 727 810  
Growing Degree Days 20 (Base 50)    
Moisture  
Dew Point 64 °F    
Average Humidity 84    
Maximum Humidity 93    
Minimum Humidity 74    
Precipitation  
Precipitation T in 0.11 in 3.52 in (1910)
Month to date precipitation 5.37 0.86  
Year to date precipitation 22.36 18.82  
Snow  
Snow 0.00 in 0.00 in T in (1910)
Month to date snowfall 0.0 0.0  
Year to date snowfall 20.3 13.7  
Since 1 July snowfall 0.0 0.0  
Snow Depth 0.00 in    
Sea Level Pressure  
Sea Level Pressure 29.97 in    
Wind  
Wind Speed 4 mph (ENE)    
Max Wind Speed 10 mph    
Max Gust Speed 13 mph    
Visibility 10 miles    
Events      
T = Trace of Precipitation, MM = Missing Value Source: NWS Daily Summary

Daily Weather History Graph

Daily Weather History Graph

Search for Another Location

Airport or City:

Trip Planner

Search our weather history database for the weather conditions in past years. The results will help you decide how hot, cold, wet, or windy it might be!

Date:

Astronomy

Aug. 08, 2013 Rise Set
Actual Time 6:36 AM CDT 8:34 PM CDT
Civil Twilight 6:07 AM CDT 9:04 PM CDT
Nautical Twilight 5:31 AM CDT 9:39 PM CDT
Astronomical Twilight 4:52 AM CDT 10:18 PM CDT
Moon 8:24 AM CDT (8/8) 9:15 PM CDT (8/8)
Length of Visible Light 14h 56m
Length of Day
13h 58m
Waxing Crescent, 3% of the Moon is Illuminated
Aug 8
Waxing Crescent
Aug 14
First Quarter
Aug 20
Full
Aug 28
Last Quarter
Sep 5
New

Hourly Weather History & Observations

Time (CDT) Temp. Dew Point Humidity Pressure Visibility Wind Dir Wind Speed Gust Speed Precip Events Conditions
12:55 AM 66.9 °F 62.1 °F 84% 29.96 in 10.0 mi East 4.6 mph - N/A   Clear
1:55 AM 64.9 °F 62.1 °F 90% 29.95 in 10.0 mi ENE 4.6 mph - N/A   Clear
2:55 AM 66.0 °F 61.0 °F 84% 29.92 in 10.0 mi ENE 6.9 mph - N/A   Clear
3:55 AM 64.9 °F 61.0 °F 87% 29.90 in 10.0 mi East 3.5 mph - N/A   Clear
4:55 AM 66.0 °F 61.0 °F 84% 29.91 in 10.0 mi East 6.9 mph - N/A   Clear
5:55 AM 66.0 °F 61.0 °F 84% 29.92 in 10.0 mi ESE 8.1 mph - N/A   Clear
6:55 AM 64.9 °F 62.1 °F 90% 29.94 in 10.0 mi ESE 5.8 mph - N/A   Scattered Clouds
7:55 AM 66.0 °F 62.1 °F 87% 29.93 in 10.0 mi East 6.9 mph - N/A   Clear
8:55 AM 66.0 °F 64.0 °F 93% 29.95 in 10.0 mi East 3.5 mph - N/A   Overcast
9:55 AM 66.9 °F 64.0 °F 90% 29.95 in 10.0 mi ENE 4.6 mph - N/A   Overcast
10:55 AM 69.1 °F 64.9 °F 87% 29.96 in 10.0 mi ESE 6.9 mph - N/A   Overcast
11:55 AM 71.1 °F 66.0 °F 84% 29.98 in 10.0 mi East 8.1 mph - N/A   Mostly Cloudy
12:11 PM 71.6 °F 66.2 °F 83% 30.01 in 10.0 mi East 8.1 mph - N/A   Overcast
12:55 PM 71.1 °F 64.9 °F 81% 29.99 in 10.0 mi Calm Calm - 0.00 in   Overcast
1:55 PM 73.0 °F 66.0 °F 79% 30.00 in 10.0 mi NE 6.9 mph - N/A   Mostly Cloudy
2:09 PM 73.4 °F 66.2 °F 78% 30.02 in 10.0 mi NNE 5.8 mph - N/A   Overcast
2:55 PM 73.0 °F 66.0 °F 79% 30.00 in 10.0 mi ENE 3.5 mph - N/A   Mostly Cloudy
3:55 PM 75.0 °F 66.0 °F 73% 30.00 in 10.0 mi ENE 4.6 mph - N/A   Overcast
4:55 PM 75.0 °F 66.0 °F 73% 29.99 in 10.0 mi NE 6.9 mph - N/A   Overcast
5:55 PM 75.0 °F 66.0 °F 73% 29.99 in 10.0 mi NE 5.8 mph - N/A   Mostly Cloudy
6:55 PM 72.0 °F 64.0 °F 76% 29.99 in 10.0 mi Calm Calm - N/A   Overcast
7:55 PM 70.0 °F 66.0 °F 87% 29.99 in 10.0 mi Calm Calm - N/A   Overcast
8:40 PM 69.8 °F 66.2 °F 88% 30.03 in 10.0 mi Calm Calm - N/A   Overcast
8:55 PM 69.1 °F 66.0 °F 90% 30.00 in 10.0 mi Calm Calm - N/A   Overcast
9:55 PM 70.0 °F 66.0 °F 87% 30.01 in 10.0 mi NE 3.5 mph - N/A   Overcast
10:55 PM 69.1 °F 64.9 °F 87% 30.02 in 10.0 mi Calm Calm - N/A   Clear
11:55 PM 66.9 °F 64.0 °F 90% 30.02 in 10.0 mi NE 3.5 mph - N/A   Clear